West Chatham, MA

6:28 AM EST on December 10, 2016 (GMT -0500)
Chatham Municipal

Weather History for KCQX - September, 2013

Change the Weather History Date:

Wednesday, September 4, 2013

  Actual Average Record
Temperature  
Mean Temperature 70 °F -  
Max Temperature 78 °F 71 °F 83 °F (1973)
Min Temperature 62 °F 58 °F 51 °F (1997)
Cooling Degree Days 4    
Growing Degree Days 20 (Base 50)    
Moisture  
Dew Point 61 °F    
Average Humidity 77    
Maximum Humidity 93    
Minimum Humidity 48    
Precipitation  
Precipitation 0.00 in - - ()
Sea Level Pressure  
Sea Level Pressure 29.89 in    
Wind  
Wind Speed 5 mph (West)    
Max Wind Speed 9 mph    
Max Gust Speed 20 mph    
Visibility 10 miles    
Events      
Averages and records for this station are not official NWS values.
T = Trace of Precipitation, MM = Missing Value Source: NWS Daily Summary

Daily Weather History Graph

Daily Weather History Graph

Search for Another Location

Airport or City:

Trip Planner

Search our weather history database for the weather conditions in past years. The results will help you decide how hot, cold, wet, or windy it might be!

Date:

Astronomy

Sep. 04, 2013 Rise Set
Actual Time 6:09 AM EDT 7:07 PM EDT
Civil Twilight 5:40 AM EDT 7:36 PM EDT
Nautical Twilight 5:06 AM EDT 8:09 PM EDT
Astronomical Twilight 4:31 AM EDT 8:44 PM EDT
Moon 5:18 AM EDT (9/4) 6:25 PM EDT (9/4)
Length of Visible Light 13h 55m
Length of Day
12h 58m
Waning Crescent, 1% of the Moon is Illuminated
Sep 4
Waning Crescent
Sep 5
New
Sep 12
First Quarter
Sep 19
Full
Sep 26
Last Quarter

Hourly Weather History & Observations

Time (EDT) Temp. Dew Point Humidity Pressure Visibility Wind Dir Wind Speed Gust Speed Precip Events Conditions
12:52 AM 66.0 °F 64.0 °F 93% 29.82 in 6.0 mi SW 3.5 mph - N/A   Clear
1:52 AM 66.0 °F 64.0 °F 93% 29.81 in 10.0 mi Variable 3.5 mph - N/A   Clear
2:52 AM 64.0 °F 62.1 °F 93% 29.82 in 10.0 mi WNW 3.5 mph - N/A   Clear
3:52 AM 62.1 °F 60.1 °F 93% 29.83 in 10.0 mi WNW 3.5 mph - N/A   Clear
4:52 AM 62.1 °F 59.0 °F 90% 29.83 in 10.0 mi WNW 4.6 mph - N/A   Clear
5:52 AM 62.1 °F 59.0 °F 90% 29.85 in 10.0 mi WNW 5.8 mph - N/A   Clear
6:52 AM 62.1 °F 59.0 °F 90% 29.87 in 10.0 mi NW 5.8 mph - N/A   Clear
7:52 AM 63.0 °F 59.0 °F 87% 29.88 in 10.0 mi WNW 5.8 mph - N/A   Clear
8:52 AM 66.9 °F 61.0 °F 81% 29.90 in 10.0 mi NW 6.9 mph - N/A   Clear
9:52 AM 70.0 °F 61.0 °F 73% 29.91 in 10.0 mi WNW 5.8 mph - N/A   Clear
10:52 AM 72.0 °F 57.9 °F 61% 29.91 in 10.0 mi Variable 6.9 mph - N/A   Clear
11:52 AM 75.0 °F 57.0 °F 53% 29.90 in 10.0 mi Variable 6.9 mph - N/A   Clear
12:52 PM 77.0 °F 55.9 °F 48% 29.90 in 10.0 mi Variable 5.8 mph - N/A   Clear
1:52 PM 77.0 °F 64.0 °F 64% 29.90 in 10.0 mi Variable 5.8 mph 17.3 mph N/A   Clear
2:52 PM 75.9 °F 62.1 °F 62% 29.90 in 10.0 mi SW 9.2 mph 16.1 mph N/A   Partly Cloudy
3:52 PM 75.9 °F 61.0 °F 60% 29.89 in 10.0 mi WSW 8.1 mph 19.6 mph N/A   Clear
4:52 PM 75.0 °F 61.0 °F 62% 29.89 in 10.0 mi WSW 6.9 mph 19.6 mph N/A   Clear
5:52 PM 72.0 °F 62.1 °F 71% 29.89 in 10.0 mi WSW 8.1 mph 17.3 mph N/A   Clear
6:52 PM 70.0 °F 63.0 °F 78% 29.89 in 10.0 mi WSW 8.1 mph - N/A   Clear
7:52 PM 70.0 °F 62.1 °F 76% 29.91 in 10.0 mi WSW 8.1 mph 16.1 mph N/A   Clear
8:52 PM 69.1 °F 63.0 °F 81% 29.93 in 10.0 mi Variable 4.6 mph - N/A   Clear
9:52 PM 68.0 °F 62.1 °F 81% 29.94 in 10.0 mi Variable 4.6 mph - N/A   Clear
10:52 PM 68.0 °F 62.1 °F 81% 29.95 in 10.0 mi WSW 4.6 mph - N/A   Clear
11:52 PM 66.9 °F 61.0 °F 81% 29.95 in 10.0 mi West 3.5 mph - N/A   Clear